Weather in Krasnomayskiy

Russia / Tver Oblast     57°37′04″N   34°24′46″E
temp.,
°C
wind,
m/s
gust,
m/s
humid.,
%
clouds,
%
prec.,
mm/h
press.,
hPa
HPBL,
m
4 july, mon
mon400:00+17sw008699 0.3 101711
03:00+16wnw018798 0.3 101711
06:00+18wsw118465 0.0 101746
09:00+24nnw015869 0.0 1017462
12:00+29nw01405 0.0 10161658
15:00+30se123590 0.0 10142579
18:00+19ene248859 2.1 1015108
21:00+18e269575 2.7 1015177
5 july, tue
tue500:00+17sse119635 0.2 101511
03:00+16ssw2396100 0.3 101556
06:00+17s139533 0.9 101489
09:00+22ssw127183 0.9 1015495
12:00+27s34463 0.0 10131845
15:00+26ssw3650100 0.0 10121211
18:00+25sw276246 0.3 1011643
21:00+19w279341 2.1 1012149
6 july, wed
wed600:00+17wnw2593100 0.1 101393
03:00+16w2496100 0.1 101473
06:00+16w249463 0.0 1015142
09:00+22nw225587 0.0 1014619
12:00+25w234495 0.0 10141603
15:00+21sse3567100 0.2 1013467
18:00+18w3690100 0.8 1013211
21:00+15nnw1496100 1.5 1012112
7 july, thu
thu700:00+14wnw4798100 2.4 1013318
03:00+13w1497100 5.6 1013141
06:00+13wsw259597 0.0 1013219
09:00+18wnw236670 0.0 1013537
12:00+23w2341100 0.0 10141838
15:00+22w3553100 0.0 1014623
18:00+20wsw2463100 0.0 1015148
21:00+17wnw117494 0.0 101511
8 july, fri
fri800:00+14sw008282 0.0 101611
03:00+14n1183100 0.0 101610
06:00+15ene1279100 0.0 101665
09:00+20se246599 0.0 1015454
12:00+24se3450100 0.0 10141625
15:00+21sse2370100 0.2 1014623
18:00+20s238696 1.3 1013297
21:00+18ssw259671 3.4 1013104